Regional Weather Roundup
Issued by NWS Charleston, SC

Current Version | Previous Version | Text Only | Print | Product List | Glossary Off
Versions: 1 2 3 4 5 6 7 8 9 10 11 12 13 14 15 16 17 18 19 20 21 22 23 24 25 26 27 28 29 30 31 32 33 34 35 36 37 38 39 40 41 42 43 44 45 46 47 48 49 50

263
ASUS42 KCHS 191027
RWRCHS

REGIONAL WEATHER ROUNDUP
NATIONAL WEATHER SERVICE CHARLESTON SC
500 AM EST SUN NOV 19 2017

NOTE: "FAIR" INDICATES FEW OR NO CLOUDS BELOW 12,000 FEET WITH NO
SIGNIFICANT WEATHER AND/OR OBSTRUCTIONS TO VISIBILITY.

NOT ALL STATIONS ARE QUALITY CONTROLLED. USE DATA WITH CAUTION...
ESPECIALLY DEWPOINT OBSERVATIONS.

SCZ027-030-031-034>040-042>050-191100-
...SOUTHEAST SOUTH CAROLINA...

CITY           SKY/WX    TMP DP  RH WIND       PRES   REMARKS
N CHARLESTON   CLOUDY    65  59  81 W16G22    29.74R
WATERFRONT PRK NOT AVBL
JOHNS ISLAND   CLOUDY    66  61  82 SW14G23   29.75R
PINOPOLIS        N/A    N/A N/A N/A SW10      29.63S
MONCKS CORNER  FAIR      61  59  94 SW7       29.74R
SUMMERVILLE    CLOUDY    61  59  94 SW6       29.76R
BEAUFORT MCAS  NOT AVBL
BEAUFORT ARPT  CLOUDY    64  61  88 SW9       29.77R
HILTON HEAD IS NOT AVBL
WALTERBORO     CLOUDY    61  59  94 W8        29.76S
ALLENDALE      CLOUDY    61  55  82 VRB5      29.75S

...SOUTHERN MIDLANDS AND PEE DEE...

CITY           SKY/WX    TMP DP  RH WIND       PRES   REMARKS
GEORGETOWN     CLOUDY    64  61  88 SW14G20   29.73R
KINGSTREE      CLOUDY    63  57  82 S7        29.70S
ORANGEBURG     CLOUDY    61  55  81 W12       29.72R
BARNWELL         N/A     61  59  94 SW8G16    29.76R
AIKEN          FAIR      54  48  82 W16G23    29.79R
MANNING        CLOUDY    61  59  94 MISG      29.72R
COLUMBIA       MOCLDY    62  57  83 W13       29.73R
SUMTER         LGT RAIN  63  54  72 W12       29.68R
FLORENCE       CLOUDY    64  58  80 SW10      29.66R
MYRTLE BEACH   CLOUDY    66  58  75 SW14G20   29.71R
N MYRTLE BEACH CLOUDY    67  58  72 SW13G24   29.70R

$$

GAZ063-065-086>088-099>101-113>116-118-119-134>141-150-191100-
...SOUTHEAST GEORGIA...

CITY           SKY/WX    TMP DP  RH WIND       PRES   REMARKS
SAVANNAH ARPT  CLOUDY    66  62  87 W13G22    29.78R
HUNTER AAF     MOCLDY    64  61  88 SW8       29.76R
FORT STEWART   DRIZZLE   64  61  88 W7        29.78R
STATESBORO     CLOUDY    60  55  85 NW7       29.80R
SYLVANIA       CLOUDY    59  56  90 NW8       29.79S
CLAXTON        CLOUDY    61  59  94 CALM      29.80S

...CSRA...CENTRAL AND FAR SOUTHEAST GEORGIA...

CITY           SKY/WX    TMP DP  RH WIND       PRES   REMARKS
THOMSON        PTCLDY    52  45  78 N14G22    29.87R
AUGUSTA-BUSH   CLOUDY    59  54  83 W15       29.77R
AUGUSTA-DANIEL CLOUDY    59  50  72 W9G23     29.78R
SWAINSBORO     CLOUDY    55  55 100 W9G16     29.84R
VIDALIA        CLOUDY    59  57  94 W7        29.84R
EASTMAN        CLOUDY    56  42  61 NW8G18    29.91R
HAZLEHURST     CLOUDY    61  58  89 NW3       29.84R
ALMA           CLOUDY    63  58  83 NW14      29.83R
WAYCROSS       CLOUDY    66  60  80 W10       29.83R
JESUP          DRIZZLE   66  63  88 CALM      29.81R
BAXLEY         CLOUDY    59  59 100 W9        29.83R
BRUNSWICK      CLOUDY    64  59  82 SW13      29.80F
SAINT SIMONS   MOCLDY    65  62  90 SW13      29.80F

$$

SCZ027-028-034-036>038-045-046-048>050-GAZ119-141-191100-
...LAKE AND SUPPLEMENTAL COASTAL OBSERVATIONS...

STATION/POSITION TIME  TEMP    WIND        PRES    WAVE   SWELL
                       AIR SEA DIR/SP/G            HT/PER HT/PER/DIR
                 (UTC) (F)     (DEG/KT/KT) (MB)    (FT/S) (FT/S/D)
WINYAH BAY       0945   66     230/ 11     1006.0S
LAKE MURRAY      1020   61     280/ 11/ 19 1006.1
ACE BASIN NERRS  0945   65     220/  3     1007.0S
FORT PULASKI     NOT AVBL
SAPELO ISLAND    1000   64     210/ 13     1009.0

$$

ANZ835-935-AMZ111-154-330-350-352-354-370-450-454-472-191100-
...C-MAN AND BUOY OBSERVATIONS...

STATION/POSITION TIME  TEMP    WIND        PRES    WAVE   SWELL
                       AIR SEA DIR/SP/G            HT/PER HT/PER/DIR
                 (UTC) (F)     (DEG/KT/KT) (MB)    (FT/S) (FT/S/D)
BUOY 41004       1000   73     220/ 27/ 37 1006.8
BUOY 41008       0950   67 69  200/ 21/ 27 1008.3F   5/ 5   2/ 80/ 9
FOLLY BEACH CMAN 1000   65     230/ 15/ 20 1007.7R
CAPERS NEARSHORE 1008   64 63  240/ 19/ 27 1006.2F
FRIPP NEARSHORE  1008   62 63  220/ 23/ 35 1007.2R


STATION/POSITION TIME  TEMP    WIND        PRES    WAVE   SWELL
                       AIR SEA DIR/SP/G            HT/PER HT/PER/DIR
                 (UTC) (F)     (DEG/KT/KT) (MB)    (FT/S) (FT/S/D)
5E ST. MARYS GA  1000      66                N/A     3/10
FRYING PAN BUOY  1000   73     220/ 29/ 37 1005.3
BUOY 41025       1010   70 65  220/ 23/ 31 1003.2
CAPE LOOKOUT NC  1000          220/ 15/ 22 1004.3F
BUOY 41002       0950   75 77  210/ 17/ 23 1010.6F   4/ 5   2/ 80/ 8
BUOY 41010       NOT AVBL
ST AUGUSTINE FL  1000   64 68  230/  7/ 10 1011.9R


$$




USA.gov is the U.S. government's official web portal to all federal, state and local government web resources and services.